Starlink 11343

operational
NORAD ID: 62017 Int'l Des: 2024-213 Owner: SPXS Country: US Constellation: starlink
LEOCIRCULAR

About Starlink 11343

Description loading...

Live Position

Loading 3D Globe...

Upcoming Passes

Altitude History

Altitude vs Time

uPlot chart will show altitude changes over time

Two-Line Element Set

1 62017U 24213K 25308.26105546 .00244832 00000-0 19620-2 0 9998
2 62017 53.1566 299.6955 0001268 81.6998 278.4163 15.69767462 55214
Epoch: Nov 4, 2025 • Age: 10 hours

Current Status

Altitude 364.6 km
Velocity 7.70 km/s
Sub-Earth Point 52.81°N, 95.92°E
Launch Date Nov 18, 2024
Age 0.9 years
Type internet

Technical Details

Classification Payload
Mass 960.00 kg
Dry Mass 910.00 kg
Total Mass 960.00 kg
Length 0.30 m
Diameter 4.10 m
Span 29.00 m
Shape Box + pan
Manufacturer SPXS
Bus Type Starlink V2MD
Phase Status In Orbit
Owner/State SPXS/US

Large Constellations

Loading constellations...